This is the latest recevied weather packets stored in our database for station/object NN5DX-12. If no packets are shown the sender has not sent any weather packets the latest 10 day(s).
| Time | Temp. | Humidity | Pressure | Rain* | Wind** | Luminosity | Snow |
|---|---|---|---|---|---|---|---|
| 1777962017 | 2.78° C | 96% | 1014.5 hPa | 0 mm | - | - | - |
| 1777961717 | 2.78° C | 96% | 1014.3 hPa | 0 mm | - | - | - |
| 1777961417 | 2.78° C | 96% | 1014.3 hPa | 0 mm | - | - | - |
| 1777961117 | 2.78° C | 96% | 1014.3 hPa | 0 mm | - | - | - |
| 1777960817 | 2.78° C | 96% | 1014.4 hPa | 0 mm | - | - | - |
| 1777960517 | 2.78° C | 96% | 1015.5 hPa | 0 mm | - | - | - |
| 1777960217 | 2.78° C | 96% | 1015.6 hPa | 0 mm | - | - | - |
| 1777959917 | 2.78° C | 96% | 1015.6 hPa | 0 mm | - | - | - |
| 1777959617 | 2.78° C | 96% | 1015.7 hPa | 0 mm | - | - | - |
| 1777959317 | 2.78° C | 96% | 1015.8 hPa | 0 mm | - | - | - |
| 1777959017 | 2.78° C | 96% | 1015.5 hPa | 0 mm | - | - | - |
| 1777958717 | 2.78° C | 96% | 1015.5 hPa | 0 mm | - | - | - |
| 1777958417 | 2.78° C | 96% | 1015.6 hPa | 0 mm | - | - | - |
| 1777958117 | 2.78° C | 96% | 1015.6 hPa | 0 mm | - | - | - |
| 1777957817 | 2.78° C | 96% | 1015.5 hPa | 0 mm | - | - | - |
| 1777957517 | 2.78° C | 96% | 1015.5 hPa | 0 mm | - | - | - |
| 1777957217 | 2.78° C | 96% | 1015.7 hPa | 0.25 mm | - | - | - |
| 1777956918 | 2.78° C | 96% | 1015.2 hPa | 0.51 mm | - | - | - |
| 1777956617 | 2.78° C | 95% | 1015 hPa | 1.02 mm | - | - | - |
| 1777956317 | 2.78° C | 95% | 1015.1 hPa | 1.27 mm | - | - | - |
| 1777956017 | 2.78° C | 95% | 1015.1 hPa | 1.78 mm | - | - | - |
| 1777955717 | 2.78° C | 95% | 1015.3 hPa | 2.03 mm | - | - | - |
| 1777955417 | 2.78° C | 95% | 1015.2 hPa | 2.54 mm | - | - | - |
| 1777955117 | 2.78° C | 95% | 1015.4 hPa | 2.79 mm | - | - | - |
| 1777954818 | 2.78° C | 95% | 1015.4 hPa | 3.3 mm | - | - | - |
* Rain latest hour (hover to see other rain measurements)
** Current wind speed in m/s (hover to see current wind gust speed)